Regional Weather Roundup
Issued by NWS Glasgow, MT

Home | Current Version | Previous Version | Text Only | Print | Product List | Glossary On
Versions: 1 2 3 4 5 6 7 8 9 10 11 12 13 14 15 16 17 18 19 20 21 22 23 24 25 26 27
000
ASUS45 KGGW 251115
RWRGGW
HOURLY REGIONAL WEATHER ROUNDUP FOR NORTHEAST MONTANA
NATIONAL WEATHER SERVICE GLASGOW MONTANA
500 AM MDT THU AUG 25 2016

NOTE: "FAIR" INDICATES FEW OR NO CLOUDS BELOW 12,000 FEET WITH NO
SIGNIFICANT WEATHER AND/OR OBSTRUCTIONS TO VISISBILITY.

NORTHEAST MONTANA


CITY           SKY/WX    TMP DP  RH WIND       PRES   REMARKS
GLASGOW        MOCLDY    50  43  77 W10       30.22F
PLENTYWOOD       N/A     49  46  90 W5          N/A
WOLF POINT     PTCLDY    52  49  89 CALM      30.22S
JORDAN           N/A     48  41  76 W6        30.26S
WINNETT          N/A     42  40  92 SW1         N/A
SIDNEY         MOCLDY    53  46  77 NW14      30.19S
GLENDIVE       CLOUDY    51  45  79 NW9       30.23S
MALTA            N/A     46  44  93 SW6         N/A
SCOBEY           N/A     46  41  82 CALM      30.18S

FORT PECK REPORTS


CITY           SKY/WX    TMP DP  RH WIND       PRES   REMARKS
FORT PECK        N/A     53  42  66 W12         N/A

SOUTHEAST MONTANA


CITY           SKY/WX    TMP DP  RH WIND       PRES   REMARKS
BILLINGS       CLOUDY    49  39  68 SW8       30.30S
MILES CITY     CLOUDY    49  44  83 W7        30.26F
BAKER          MOCLDY    47  42  83 W12       30.24S
LIVINGSTON     CLEAR     38  35  89 NW8       30.32S

CENTRAL MONTANA


CITY           SKY/WX    TMP DP  RH WIND       PRES   REMARKS
HAVRE          CLEAR     41  39  93 SW7       30.26F
LEWISTOWN      CLOUDY    41  37  86 SE6       30.30F
GREAT FALLS    CLEAR     40  36  86 SW10      30.29F
CUT BANK       CLEAR     37  34  89 W9        30.28F
HELENA         CLEAR     44  35  70 CALM      30.30F
BUTTE          CLEAR     34  28  79 S5        30.34S
BOZEMAN        CLEAR     41  36  82 S5        30.32F

WESTERN MONTANA


CITY           SKY/WX    TMP DP  RH WIND       PRES   REMARKS
MISSOULA       CLEAR     43  37  79 NW5       30.28S
KALISPELL      NOT AVBL

NORTH DAKOTA


CITY           SKY/WX    TMP DP  RH WIND       PRES   REMARKS
WILLISTON      CLOUDY    54  46  74 NW8       30.18R
DICKINSON      PTCLDY    49  45  86 W12       30.15S
MINOT          LGT RAIN  53  52  96 NW17      30.08R FOG
BISMARCK       CLOUDY    57  48  72 NW14G23   30.11R

SOUTHERN SASKATCHEWAN


CITY           SKY/WX    TMP DP  RH WIND       PRES   REMARKS
REGINA         PTCLDY    41  41 100 W3        30.13F
MOOSE JAW      PTCLDY    46  45  93 W7        30.15S
ESTEVAN        CLOUDY    52  48  87 W9        30.14S
SWIFT CURRENT  CLEAR     46  43  87 SW12      30.18F





USA.gov is the U.S. government's official web portal to all federal, state and local government web resources and services.